Weather History for KMAN - January, 2014

Change the Weather History Date:

Tuesday, January 28, 2014

  Actual Average (KBOI) Record (KBOI)
Temperature  
Mean Temperature 28 °F 33 °F  
Max Temperature 30 °F 40 °F 61 °F (1888)
Min Temperature 26 °F 26 °F -6 °F (1957)
Degree Days  
Heating Degree Days 37 32  
Month to date heating degree days 950  
Since 1 July heating degree days 3265  
Cooling Degree Days 0 0  
Month to date cooling degree days 0  
Year to date cooling degree days 0  
Moisture  
Dew Point 27 °F    
Average Humidity 96    
Maximum Humidity 100    
Minimum Humidity 86    
Precipitation  
Precipitation 0.00 in 0.04 in 0.77 in (1965)
Month to date precipitation 1.14  
Year to date precipitation 1.14  
Snow  
Snow 0.00 in 0.10 in 4.80 in (1916)
Month to date snowfall 4.7  
Since 1 July snowfall 14.4  
Snow Depth -    
Sea Level Pressure  
Sea Level Pressure 30.34 in    
Wind  
Wind Speed 5 mph (ESE)    
Max Wind Speed 9 mph    
Max Gust Speed -    
Visibility 9 miles    
Events      
T = Trace of Precipitation, MM = Missing Value Source: NWS Daily Summary

Daily Weather History Graph

Daily Weather History Graph

Search for Another Location

Airport or City:

Trip Planner

Search our weather history database for the weather conditions in past years. The results will help you decide how hot, cold, wet, or windy it might be!

Date:

Astronomy

Jan. 28, 2014 Rise Set
Actual Time 8:06 AM MST 5:52 PM MST
Civil Twilight 7:35 AM MST 6:22 PM MST
Nautical Twilight 7:01 AM MST 6:57 PM MST
Astronomical Twilight 6:27 AM MST 7:31 PM MST
Moon 5:53 AM MST 3:46 PM MST
Length of Visible Light 10h 47m
Length of Day
9h 45m
Waning Crescent, 7% of the Moon is Illuminated
Jan 28
Waning Crescent
Jan 30
New
Feb 6
First Quarter
Feb 14
Full
Feb 22
Last Quarter

Hourly Weather History & Observations

Time (MST) Temp. Windchill Dew Point Humidity Pressure Visibility Wind Dir Wind Speed Gust Speed Precip Events Conditions
12:15 AM 26.6 °F 21.2 °F 26.6 °F 100% 30.36 in 7.0 mi South 4.6 mph - N/A   Overcast
12:35 AM 26.6 °F 21.2 °F 26.6 °F 100% 30.36 in 9.0 mi SSE 4.6 mph - N/A   Overcast
12:55 AM 26.6 °F 22.6 °F 26.6 °F 100% 30.36 in 10.0 mi SE 3.5 mph - N/A   Overcast
1:15 AM 26.6 °F 22.6 °F 26.6 °F 100% 30.35 in 10.0 mi ESE 3.5 mph - N/A   Unknown
1:35 AM 26.6 °F 20.0 °F 26.6 °F 100% 30.35 in 10.0 mi SE 5.8 mph - N/A   Unknown
1:55 AM 26.6 °F 19.1 °F 26.6 °F 100% 30.36 in 10.0 mi SSE 6.9 mph - N/A   Unknown
2:15 AM 26.6 °F 20.0 °F 26.6 °F 100% 30.36 in 10.0 mi SSE 5.8 mph - N/A   Overcast
2:35 AM 26.6 °F 17.5 °F 26.6 °F 100% 30.37 in 10.0 mi SE 9.2 mph - N/A   Overcast
2:55 AM 26.6 °F 17.5 °F 26.6 °F 100% 30.37 in 10.0 mi SE 9.2 mph - N/A   Overcast
3:15 AM 26.6 °F 18.2 °F 26.6 °F 100% 30.38 in 10.0 mi SSE 8.1 mph - N/A   Overcast
3:35 AM 26.6 °F 19.1 °F 26.6 °F 100% 30.37 in 9.0 mi SE 6.9 mph - N/A   Overcast
3:55 AM 26.6 °F 18.2 °F 26.6 °F 100% 30.37 in 8.0 mi SE 8.1 mph - N/A   Overcast
4:15 AM 26.6 °F 20.0 °F 26.6 °F 100% 30.38 in 8.0 mi SE 5.8 mph - N/A   Overcast
4:35 AM 26.6 °F 19.1 °F 26.6 °F 100% 30.38 in 8.0 mi SE 6.9 mph - N/A   Overcast
4:55 AM 26.6 °F 20.0 °F 26.6 °F 100% 30.38 in 8.0 mi SE 5.8 mph - N/A   Overcast
5:15 AM 26.6 °F 21.2 °F 26.6 °F 100% 30.38 in 8.0 mi SE 4.6 mph - N/A   Unknown
5:35 AM 26.6 °F 19.1 °F 26.6 °F 100% 30.37 in 9.0 mi ESE 6.9 mph - N/A   Unknown
5:55 AM 26.6 °F 20.0 °F 26.6 °F 100% 30.38 in 10.0 mi ESE 5.8 mph - N/A   Overcast
6:15 AM 26.6 °F 20.0 °F 26.6 °F 100% 30.38 in 8.0 mi SE 5.8 mph - N/A   Overcast
6:35 AM 26.6 °F 19.1 °F 26.6 °F 100% 30.38 in 8.0 mi ESE 6.9 mph - N/A   Overcast
6:55 AM 26.6 °F 21.2 °F 26.6 °F 100% 30.38 in 9.0 mi SE 4.6 mph - N/A   Overcast
7:15 AM 26.6 °F 22.6 °F 26.6 °F 100% 30.39 in 9.0 mi SSE 3.5 mph - N/A   Overcast
7:35 AM 26.6 °F 20.0 °F 26.6 °F 100% 30.38 in 10.0 mi SE 5.8 mph - N/A   Overcast
7:55 AM 26.6 °F 20.0 °F 26.6 °F 100% 30.39 in 9.0 mi SSE 5.8 mph - N/A   Overcast
8:15 AM 26.6 °F 22.6 °F 26.6 °F 100% 30.39 in 8.0 mi SSE 3.5 mph - N/A   Overcast
8:35 AM 26.6 °F 19.1 °F 26.6 °F 100% 30.40 in 8.0 mi ESE 6.9 mph - N/A   Overcast
8:55 AM 26.6 °F 21.2 °F 26.6 °F 100% 30.40 in 7.0 mi SE 4.6 mph - N/A   Overcast
9:15 AM 26.6 °F 20.0 °F 26.6 °F 100% 30.40 in 8.0 mi SE 5.8 mph - N/A   Overcast
9:35 AM 26.6 °F 20.0 °F 26.6 °F 100% 30.40 in 8.0 mi SE 5.8 mph - N/A   Overcast
9:55 AM 26.6 °F 18.2 °F 26.6 °F 100% 30.39 in 7.0 mi ESE 8.1 mph - N/A   Overcast
10:15 AM 26.6 °F 21.2 °F 26.6 °F 100% 30.41 in 7.0 mi SE 4.6 mph - N/A   Overcast
10:35 AM 26.6 °F 21.2 °F 26.6 °F 100% 30.41 in 7.0 mi SE 4.6 mph - N/A   Overcast
10:55 AM 26.6 °F 22.6 °F 26.6 °F 100% 30.41 in 8.0 mi SSE 3.5 mph - N/A   Overcast
11:15 AM 26.6 °F 20.0 °F 26.6 °F 100% 30.41 in 8.0 mi SE 5.8 mph - N/A   Overcast
11:35 AM 28.4 °F 22.2 °F 26.6 °F 93% 30.41 in 9.0 mi SE 5.8 mph - N/A   Overcast
11:55 AM 28.4 °F 23.3 °F 26.6 °F 93% 30.41 in 9.0 mi East 4.6 mph - N/A   Overcast
12:15 PM 28.4 °F 24.6 °F 26.6 °F 93% 30.41 in 10.0 mi ESE 3.5 mph - N/A   Overcast
12:35 PM 28.4 °F 23.3 °F 26.6 °F 93% 30.40 in 10.0 mi East 4.6 mph - N/A   Overcast
12:55 PM 28.4 °F 23.3 °F 26.6 °F 93% 30.39 in 9.0 mi East 4.6 mph - N/A   Overcast
1:15 PM 28.4 °F 23.3 °F 26.6 °F 93% 30.38 in 9.0 mi ESE 4.6 mph - N/A   Overcast
1:35 PM 28.4 °F - 26.6 °F 93% 30.37 in 10.0 mi Calm Calm - N/A   Overcast
1:55 PM 28.4 °F 24.6 °F 26.6 °F 93% 30.36 in 10.0 mi East 3.5 mph - N/A   Overcast
2:15 PM 30.2 °F - 26.6 °F 86% 30.34 in 9.0 mi Calm Calm - N/A   Mostly Cloudy
2:35 PM 30.2 °F - 26.6 °F 86% 30.34 in 10.0 mi Calm Calm - N/A   Overcast
2:55 PM 30.2 °F 26.7 °F 26.6 °F 86% 30.33 in 10.0 mi NE 3.5 mph - N/A   Overcast
3:15 PM 30.2 °F 25.4 °F 26.6 °F 86% 30.33 in 10.0 mi NNE 4.6 mph - N/A   Overcast
3:35 PM 30.2 °F 25.4 °F 26.6 °F 86% 30.32 in 10.0 mi NE 4.6 mph - N/A   Overcast
3:55 PM 30.2 °F 26.7 °F 26.6 °F 86% 30.32 in 9.0 mi NE 3.5 mph - N/A   Overcast
4:15 PM 30.2 °F 26.7 °F 26.6 °F 86% 30.31 in 9.0 mi ENE 3.5 mph - N/A   Overcast
4:35 PM 30.2 °F - 26.6 °F 86% 30.30 in 9.0 mi Calm Calm - N/A   Overcast
4:55 PM 30.2 °F 26.7 °F 26.6 °F 86% 30.30 in 9.0 mi North 3.5 mph - N/A   Overcast
5:15 PM 30.2 °F 24.3 °F 26.6 °F 86% 30.30 in 10.0 mi North 5.8 mph - N/A   Overcast
5:35 PM 30.2 °F 26.7 °F 28.4 °F 93% 30.30 in 8.0 mi North 3.5 mph - N/A   Overcast
5:55 PM 30.2 °F 24.3 °F 28.4 °F 93% 30.30 in 9.0 mi North 5.8 mph - N/A   Overcast
6:15 PM 30.2 °F 24.3 °F 28.4 °F 93% 30.31 in 10.0 mi NNW 5.8 mph - N/A   Overcast
6:35 PM 30.2 °F 25.4 °F 28.4 °F 93% 30.30 in 10.0 mi NNW 4.6 mph - N/A   Overcast
6:55 PM 30.2 °F 24.3 °F 28.4 °F 93% 30.30 in 10.0 mi North 5.8 mph - N/A   Unknown
7:15 PM 30.2 °F 25.4 °F 28.4 °F 93% 30.30 in 10.0 mi North 4.6 mph - N/A   Unknown
7:35 PM 30.2 °F - 28.4 °F 93% 30.28 in 10.0 mi Calm Calm - N/A   Overcast
7:55 PM 30.2 °F - 28.4 °F 93% 30.29 in 10.0 mi Calm Calm - N/A   Overcast
8:15 PM 30.2 °F 25.4 °F 30.2 °F 100% 30.30 in 10.0 mi WNW 4.6 mph - N/A   Overcast
8:35 PM 30.2 °F 26.7 °F 30.2 °F 100% 30.29 in 10.0 mi North 3.5 mph - N/A   Overcast
8:55 PM 28.4 °F 24.6 °F 28.4 °F 100% 30.28 in 9.0 mi North 3.5 mph - N/A   Overcast
9:15 PM 28.4 °F - 28.4 °F 100% 30.27 in 9.0 mi Calm Calm - N/A   Overcast
9:35 PM 28.4 °F - 28.4 °F 100% 30.26 in 10.0 mi Calm Calm - N/A   Mostly Cloudy
9:55 PM 28.4 °F - 28.4 °F 100% 30.25 in 9.0 mi Calm Calm - N/A   Mostly Cloudy
10:15 PM 28.4 °F - 28.4 °F 100% 30.24 in 9.0 mi Calm Calm - N/A   Overcast
10:35 PM 28.4 °F - 28.4 °F 100% 30.24 in 8.0 mi Calm Calm - N/A   Overcast
10:55 PM 28.4 °F - 28.4 °F 100% 30.24 in 9.0 mi Calm Calm - N/A   Overcast
11:15 PM 30.2 °F - 28.4 °F 93% 30.23 in 9.0 mi Calm Calm - N/A   Unknown
11:35 PM 30.2 °F - 30.2 °F 100% 30.23 in 9.0 mi Calm Calm - N/A   Unknown
11:55 PM 28.4 °F - 28.4 °F 100% 30.22 in 9.0 mi Calm Calm - N/A   Unknown